KE7MWT Weather Reports


Display with metric or nautical units.
time (UTC)temp
F
wind
direction
speed
MPH
gust
MPH
rain 1hr
in
rain 24hr
in
rain mn
in
humidity
%
barometer
mb
20210417061914 59 192 0.0 0.0 0.00 0.00 0.00 22 1010.7
20210417061337 60 192 0.0 0.0 0.00 0.00 0.00 21 1010.7
20210417060817 60 192 0.0 0.0 0.00 0.00 0.00 21 1010.7
20210417060327 60 192 0.0 0.0 0.00 0.00 0.00 21 1010.7
20210417060120 61 192 0.0 0.0 0.00 0.00 0.00 21 1010.7
20210417055639 61 192 0.0 0.0 0.00 0.00 0.00 21 1010.7
20210417054818 61 192 0.0 0.0 0.00 0.00 0.00 20 1010.7
20210417054325 61 192 0.0 1.0 0.00 0.00 0.00 19 1010.6
20210417053835 61 192 0.0 2.0 0.00 0.00 0.00 19 1010.6
20210417053334 61 192 1.0 2.0 0.00 0.00 0.00 19 1010.6
20210417053135 61 192 1.0 3.0 0.00 0.00 0.00 19 1010.6
20210417052831 62 192 1.0 3.0 0.00 0.00 0.00 21 1010.6
20210417051923 62 192 0.0 2.0 0.00 0.00 0.00 21 1010.6
20210417051328 62 192 0.0 1.0 0.00 0.00 0.00 22 1010.5
20210417050814 62 192 0.0 2.0 0.00 0.00 0.00 21 1010.6
20210417050332 62 192 0.0 3.0 0.00 0.00 0.00 22 1010.5
20210417045947 62 192 1.0 3.0 0.00 0.00 0.00 24 1010.5
20210417045802 63 192 1.0 2.0 0.00 0.00 0.00 26 1010.4
20210417044925 63 192 0.0 2.0 0.00 0.00 0.00 27 1010.4
20210417044319 63 192 0.0 0.0 0.00 0.00 0.00 26 1010.4
20210417043821 63 192 0.0 0.0 0.00 0.00 0.00 26 1010.3
20210417043329 64 192 0.0 0.0 0.00 0.00 0.00 26 1010.3
20210417042847 64 192 0.0 0.0 0.00 0.00 0.00 24 1010.3
20210417042611 64 192 0.0 0.0 0.00 0.00 0.00 23 1010.3
20210417041907 65 192 0.0 0.0 0.00 0.00 0.00 22 1010.3
20210417041328 65 192 0.0 0.0 0.00 0.00 0.00 21 1010.2
20210417040853 66 192 0.0 0.0 0.00 0.00 0.00 19 1010.2
20210417040321 66 192 0.0 0.0 0.00 0.00 0.00 19 1010.1
20210417035825 66 192 0.0 0.0 0.00 0.00 0.00 18 1010.0
20210417035428 67 192 0.0 0.0 0.00 0.00 0.00 17 1010.0
20210417034850 67 192 0.0 0.0 0.00 0.00 0.00 17 1010.0
20210417034326 67 192 0.0 0.0 0.00 0.00 0.00 15 1010.0
20210417033842 68 192 0.0 0.0 0.00 0.00 0.00 15 1010.0
20210417033317 68 192 0.0 0.0 0.00 0.00 0.00 15 1009.9
20210417032824 69 192 0.0 0.0 0.00 0.00 0.00 15 1009.9
20210417032511 69 192 0.0 0.0 0.00 0.00 0.00 14 1009.9
20210417031842 70 192 0.0 0.0 0.00 0.00 0.00 13 1009.8
20210417031319 70 192 0.0 0.0 0.00 0.00 0.00 13 1009.7
20210417030827 71 192 0.0 0.0 0.00 0.00 0.00 12 1009.7
20210417030321 71 192 0.0 0.0 0.00 0.00 0.00 11 1009.6
20210417025835 72 192 0.0 0.0 0.00 0.00 0.00 11 1009.6
20210417025631 72 192 0.0 0.0 0.00 0.00 0.00 11 1009.5
20210417024924 73 192 0.0 0.0 0.00 0.00 0.00 10 1009.5
20210417024323 73 192 0.0 0.0 0.00 0.00 0.00 9 1009.5
20210417023825 74 192 0.0 0.0 0.00 0.00 0.00 9 1009.4
20210417023338 75 192 0.0 0.0 0.00 0.00 0.00 7 1009.4
20210417022839 75 192 0.0 0.0 0.00 0.00 0.00 7 1009.4
20210417022633 76 192 0.0 0.0 0.00 0.00 0.00 6 1009.4
20210417021948 76 192 0.0 0.0 0.00 0.00 0.00 5 1009.2
20210417021330 77 192 0.0 1.0 0.00 0.00 0.00 4 1009.2
20210417020814 78 192 0.0 1.0 0.00 0.00 0.00 4 1009.1
20210417020325 78 192 0.0 0.0 0.00 0.00 0.00 3 1009.2
20210417015919 79 192 0.0 1.0 0.00 0.00 0.00 3 1009.1
20210417015638 80 192 0.0 3.0 0.00 0.00 0.00 2 1009.0
20210417014901 80 192 1.0 3.0 0.00 0.00 0.00 1 1009.0
20210417014327 81 192 0.0 4.0 0.00 0.00 0.00 1 1009.0
20210417013831 81 192 1.0 4.0 0.00 0.00 0.00 1 1009.0
20210417013320 82 192 1.0 3.0 0.00 0.00 0.00 1 1008.9
20210417013030 83 192 1.0 5.0 0.00 0.00 0.00 1 1008.9
20210417012847 83 192 2.0 6.0 0.00 0.00 0.00 1 1008.9
20210417011901 84 229 1.0 6.0 0.00 0.00 0.00 1 1008.8
20210417011326 85 228 1.0 4.0 0.00 0.00 0.00 1 1008.8
20210417010830 85 228 2.0 4.0 0.00 0.00 0.00 1 1008.9
20210417010318 85 244 2.0 4.0 0.00 0.00 0.00 1 1008.8
20210417010057 85 245 1.0 5.0 0.00 0.00 0.00 1 1008.8
20210417005815 85 245 2.0 5.0 0.00 0.00 0.00 1 1008.9
20210417004945 85 242 3.0 5.0 0.00 0.00 0.00 1 1008.8
20210417004325 85 271 2.0 7.0 0.00 0.00 0.00 1 1008.8
20210417003835 85 251 3.0 8.0 0.00 0.00 0.00 1 1008.8
20210417003320 85 246 2.0 7.0 0.00 0.00 0.00 1 1008.9
20210417002915 85 244 3.0 7.0 0.00 0.00 0.00 1 1008.9
20210417002743 85 245 3.0 9.0 0.00 0.00 0.00 1 1008.8
20210417001903 85 242 4.0 9.0 0.00 0.00 0.00 1 1008.8
20210417001323 86 180 2.0 7.0 0.00 0.00 0.00 1 1008.8
20210417000823 86 186 2.0 6.0 0.00 0.00 0.00 1 1008.8
20210417000419 86 188 2.0 10.0 0.00 0.00 0.00 1 1008.8
20210417000025 86 244 4.0 10.0 0.00 0.00 0.00 1 1008.8
20210416235829 86 184 3.0 7.0 0.00 0.00 0.00 1 1008.8
20210416234907 86 219 2.0 4.0 0.00 0.00 0.00 1 1008.9
20210416234313 86 288 2.0 5.0 0.00 0.00 0.00 1 1008.9
20210416233816 86 288 3.0 5.0 0.00 0.00 0.00 1 1008.9
20210416233324 86 245 1.0 10.0 0.00 0.00 0.00 1 1008.9
20210416232931 86 236 2.0 7.0 0.00 0.00 0.00 1 1008.9
20210416232727 85 227 3.0 11.0 0.00 0.00 0.00 1 1008.9
20210416231928 86 253 5.0 11.0 0.00 0.00 0.00 1 1008.9
20210416231325 85 185 1.0 6.0 0.00 0.00 0.00 1 1008.9
20210416230824 85 185 3.0 6.0 0.00 0.00 0.00 1 1009.0
20210416230331 85 250 2.0 10.0 0.00 0.00 0.00 1 1009.0
20210416230106 85 238 3.0 12.0 0.00 0.00 0.00 1 1009.0
20210416225752 85 244 2.0 8.0 0.00 0.00 0.00 1 1009.0
20210416224937 85 210 2.0 8.0 0.00 0.00 0.00 1 1009.1
20210416224315 85 236 3.0 9.0 0.00 0.00 0.00 1 1009.1
20210416223820 85 208 5.0 9.0 0.00 0.00 0.00 1 1009.2
20210416223328 85 259 2.0 9.0 0.00 0.00 0.00 1 1009.1
20210416222950 84 258 5.0 9.0 0.00 0.00 0.00 1 1009.3
20210416222843 84 178 4.0 8.0 0.00 0.00 0.00 1 1009.3
20210416221931 84 184 3.0 6.0 0.00 0.00 0.00 1 1009.4
20210416221322 84 250 2.0 8.0 0.00 0.00 0.00 1 1009.4
20210416220820 84 237 4.0 8.0 0.00 0.00 0.00 1 1009.5
20210416220329 84 201 2.0 7.0 0.00 0.00 0.00 1 1009.6
20210416220023 84 217 3.0 6.0 0.00 0.00 0.00 1 1009.6
20210416215828 84 245 4.0 7.0 0.00 0.00 0.00 1 1009.6
20210416214923 84 234 3.0 7.0 0.00 0.00 0.00 1 1009.7
20210416214329 84 236 2.0 5.0 0.00 0.00 0.00 1 1009.7
20210416213835 84 247 2.0 5.0 0.00 0.00 0.00 1 1009.8
20210416213323 84 247 2.0 9.0 0.00 0.00 0.00 1 1009.8
20210416212840 84 246 3.0 9.0 0.00 0.00 0.00 1 1009.9
20210416212733 84 229 4.0 7.0 0.00 0.00 0.00 1 1009.9
20210416211944 83 304 1.0 4.0 0.00 0.00 0.00 1 1010.0
20210416211324 83 238 1.0 7.0 0.00 0.00 0.00 1 1010.0
20210416210828 83 235 3.0 8.0 0.00 0.00 0.00 1 1010.1
20210416210325 83 245 3.0 9.0 0.00 0.00 0.00 1 1010.1
20210416205836 83 247 4.0 9.0 0.00 0.00 0.00 1 1010.1
20210416205442 83 15 3.0 8.0 0.00 0.00 0.00 1 1010.3
20210416204838 83 18 4.0 8.0 0.00 0.00 0.00 1 1010.4
20210416204343 83 221 2.0 6.0 0.00 0.00 0.00 1 1010.4
20210416203834 83 223 2.0 6.0 0.00 0.00 0.00 1 1010.5
20210416203314 83 192 3.0 9.0 0.00 0.00 0.00 1 1010.5
20210416202914 83 234 5.0 9.0 0.00 0.00 0.00 1 1010.4
20210416202652 83 28 1.0 4.0 0.00 0.00 0.00 1 1010.5
20210416201905 84 144 2.0 5.0 0.00 0.00 0.00 1 1010.6
20210416201323 83 161 3.0 5.0 0.00 0.00 0.00 1 1010.7
20210416200842 83 180 1.0 5.0 0.00 0.00 0.00 1 1010.6
20210416200330 83 180 2.0 5.0 0.00 0.00 0.00 1 1010.7
20210416200048 83 192 2.0 4.0 0.00 0.00 0.00 2 1010.8
20210416195836 82 192 2.0 6.0 0.00 0.00 0.00 1 1010.8
20210416195139 81 192 2.0 6.0 0.00 0.00 0.00 4 1010.9
20210416194330 81 189 2.0 5.0 0.00 0.00 0.00 1 1010.9
20210416193819 81 189 1.0 5.0 0.00 0.00 0.00 1 1010.9
20210416193454 81 190 3.0 5.0 0.00 0.00 0.00 2 1011.0
20210416193244 81 189 1.0 5.0 0.00 0.00 0.00 3 1011.1
20210416193055 80 190 2.0 5.0 0.00 0.00 0.00 2 1011.1
20210416192022 80 190 1.0 5.0 0.00 0.00 0.00 2 1011.1
20210416191337 80 182 2.0 4.0 0.00 0.00 0.00 2 1011.2
20210416190816 79 181 2.0 4.0 0.00 0.00 0.00 2 1011.2
20210416190324 79 195 1.0 8.0 0.00 0.00 0.00 1 1011.3
20210416190040 79 195 3.0 8.0 0.00 0.00 0.00 3 1011.3
20210416185344 79 190 1.0 4.0 0.00 0.00 0.00 1 1011.4
20210416184826 79 190 2.0 4.0 0.00 0.00 0.00 3 1011.4
20210416184315 79 190 2.0 4.0 0.00 0.00 0.00 1 1011.4
20210416183836 79 190 0.0 5.0 0.00 0.00 0.00 4 1011.5
20210416183327 79 190 2.0 5.0 0.00 0.00 0.00 1 1011.5
20210416182941 79 189 2.0 6.0 0.00 0.00 0.00 3 1011.6
20210416182758 79 190 2.0 6.0 0.00 0.00 0.00 5 1011.7
20210416181945 79 214 1.0 4.0 0.00 0.00 0.00 4 1011.7
20210416181344 79 214 3.0 5.0 0.00 0.00 0.00 2 1011.7
20210416180822 78 213 2.0 5.0 0.00 0.00 0.00 5 1011.8
20210416180322 78 213 2.0 5.0 0.00 0.00 0.00 4 1011.8
20210416175831 79 242 3.0 4.0 0.00 0.00 0.00 3 1011.8
20210416175523 78 252 1.0 4.0 0.00 0.00 0.00 4 1011.8
20210416174841 78 252 0.0 4.0 0.00 0.00 0.00 3 1011.8
20210416174312 77 250 0.0 2.0 0.00 0.00 0.00 3 1011.9
20210416173820 77 250 1.0 4.0 0.00 0.00 0.00 4 1012.0
20210416173326 76 250 2.0 4.0 0.00 0.00 0.00 5 1012.0
20210416172848 76 252 2.0 3.0 0.00 0.00 0.00 5 1012.1
20210416172739 76 252 1.0 2.0 0.00 0.00 0.00 6 1012.1
20210416171914 75 252 0.0 4.0 0.00 0.00 0.00 4 1012.2
20210416171325 75 252 1.0 7.0 0.00 0.00 0.00 6 1012.3
20210416170852 74 252 2.0 7.0 0.00 0.00 0.00 5 1012.4
20210416170325 74 265 2.0 4.0 0.00 0.00 0.00 6 1012.4
20210416170039 73 265 1.0 3.0 0.00 0.00 0.00 6 1012.2
20210416165830 73 265 1.0 3.0 0.00 0.00 0.00 9 1012.2
20210416164921 73 265 0.0 4.0 0.00 0.00 0.00 10 1012.2
20210416164317 73 265 2.0 4.0 0.00 0.00 0.00 9 1012.3
20210416163821 73 265 1.0 4.0 0.00 0.00 0.00 7 1012.3
20210416163328 73 265 1.0 7.0 0.00 0.00 0.00 9 1012.3
20210416162830 72 223 1.0 4.0 0.00 0.00 0.00 7 1012.3
20210416162613 72 222 2.0 4.0 0.00 0.00 0.00 10 1012.3
20210416161858 72 222 2.0 3.0 0.00 0.00 0.00 10 1012.3
20210416161336 72 222 1.0 4.0 0.00 0.00 0.00 11 1012.2
20210416160815 71 222 2.0 4.0 0.00 0.00 0.00 10 1012.2
20210416160323 71 222 0.0 4.0 0.00 0.00 0.00 10 1012.3
20210416155949 70 222 0.0 2.0 0.00 0.00 0.00 10 1012.2
20210416155758 70 222 0.0 3.0 0.00 0.00 0.00 7 1012.2
20210416154901 70 222 0.0 3.0 0.00 0.00 0.00 9 1012.2
20210416154320 69 222 1.0 3.0 0.00 0.00 0.00 10 1012.2
20210416153824 68 222 0.0 1.0 0.00 0.00 0.00 13 1012.2
20210416153330 67 222 0.0 1.0 0.00 0.00 0.00 13 1012.2
20210416152817 66 222 0.0 1.0 0.00 0.00 0.00 14 1012.1
20210416152612 66 222 0.0 1.0 0.00 0.00 0.00 14 1012.2
20210416151900 66 222 0.0 1.0 0.00 0.00 0.00 14 1012.2
20210416151339 65 222 0.0 1.0 0.00 0.00 0.00 19 1012.0
20210416150834 64 222 0.0 1.0 0.00 0.00 0.00 19 1011.9
20210416150357 63 222 0.0 1.0 0.00 0.00 0.00 20 1011.9
20210416150206 62 222 0.0 2.0 0.00 0.00 0.00 20 1011.8
20210416145845 61 222 0.0 2.0 0.00 0.00 0.00 26 1011.8
20210416145038 60 222 0.0 1.0 0.00 0.00 0.00 30 1011.8
20210416144321 58 222 0.0 0.0 0.00 0.00 0.00 31 1011.7
20210416143828 57 222 0.0 0.0 0.00 0.00 0.00 32 1011.6
20210416143315 56 222 0.0 0.0 0.00 0.00 0.00 36 1011.6
20210416142925 54 222 0.0 0.0 0.00 0.00 0.00 38 1011.6
20210416142819 54 222 0.0 0.0 0.00 0.00 0.00 37 1011.6
20210416141946 53 222 0.0 0.0 0.00 0.00 0.00 39 1011.7
20210416141314 52 222 0.0 0.0 0.00 0.00 0.00 40 1011.6
20210416140831 52 222 0.0 0.0 0.00 0.00 0.00 39 1011.6
20210416140329 51 222 0.0 0.0 0.00 0.00 0.00 39 1011.5
20210416140106 51 222 0.0 0.0 0.00 0.00 0.00 38 1011.4
20210416135852 50 222 0.0 0.0 0.00 0.00 0.00 39 1011.4
20210416134950 50 222 0.0 2.0 0.00 0.00 0.00 38 1011.4
20210416134323 50 222 0.0 2.0 0.00 0.00 0.00 38 1011.5
20210416133831 49 222 0.0 2.0 0.00 0.00 0.00 39 1011.3
20210416133321 49 222 0.0 1.0 0.00 0.00 0.00 38 1011.3
20210416132902 49 222 0.0 0.0 0.00 0.00 0.00 38 1011.3
20210416132743 49 222 0.0 1.0 0.00 0.00 0.00 39 1011.3
20210416131945 49 222 0.0 1.0 0.00 0.00 0.00 39 1011.2
20210416131319 49 222 0.0 0.0 0.00 0.00 0.00 38 1011.2
20210416130827 49 222 0.0 0.0 0.00 0.00 0.00 36 1011.2
20210416130329 49 222 0.0 0.0 0.00 0.00 0.00 37 1011.1
20210416125831 49 222 0.0 0.0 0.00 0.00 0.00 36 1011.1
20210416125055 49 222 0.0 0.0 0.00 0.00 0.00 35 1011.0
20210416124330 49 222 0.0 0.0 0.00 0.00 0.00 34 1011.1
20210416123833 50 222 0.0 0.0 0.00 0.00 0.00 33 1011.0
20210416123321 50 222 0.0 1.0 0.00 0.00 0.00 33 1011.0
20210416122826 50 222 0.0 0.0 0.00 0.00 0.00 33 1011.0
20210416122753 50 222 0.0 0.0 0.00 0.00 0.00 33 1011.0
20210416121917 50 222 0.0 0.0 0.00 0.00 0.00 31 1011.0
20210416121322 50 222 0.0 0.0 0.00 0.00 0.00 30 1010.9
20210416120828 51 222 0.0 0.0 0.00 0.00 0.00 29 1010.9
20210416120333 51 222 0.0 0.0 0.00 0.00 0.00 28 1010.8
20210416115837 51 222 0.0 0.0 0.00 0.00 0.00 28 1010.7
20210416115023 51 222 0.0 0.0 0.00 0.00 0.00 28 1010.8
20210416114317 51 222 0.0 0.0 0.00 0.00 0.00 27 1010.7
20210416113823 51 222 0.0 0.0 0.00 0.00 0.00 26 1010.6
20210416113327 52 222 0.0 1.0 0.00 0.00 0.00 25 1010.6
20210416112839 52 222 0.0 1.0 0.00 0.00 0.00 28 1010.7
20210416112639 52 222 0.0 0.0 0.00 0.00 0.00 26 1010.6
20210416111925 52 222 0.0 1.0 0.00 0.00 0.00 27 1010.7
20210416111322 52 222 0.0 1.0 0.00 0.00 0.00 28 1010.7
20210416110832 52 222 0.0 1.0 0.00 0.00 0.00 27 1010.6
20210416110323 52 222 0.0 2.0 0.00 0.00 0.00 29 1010.6
20210416105953 52 222 1.0 2.0 0.00 0.00 0.00 30 1010.6
20210416105754 53 222 0.0 1.0 0.00 0.00 0.00 31 1010.6
20210416104835 53 222 0.0 0.0 0.00 0.00 0.00 31 1010.6
20210416104320 53 222 0.0 0.0 0.00 0.00 0.00 30 1010.6
20210416103822 53 222 0.0 0.0 0.00 0.00 0.00 29 1010.7
20210416103327 53 222 0.0 0.0 0.00 0.00 0.00 29 1010.6
20210416103040 53 222 0.0 0.0 0.00 0.00 0.00 29 1010.7
20210416102835 54 222 0.0 0.0 0.00 0.00 0.00 28 1010.7
20210416102024 54 222 0.0 0.0 0.00 0.00 0.00 27 1010.7
20210416101334 54 222 0.0 1.0 0.00 0.00 0.00 28 1010.7
20210416100815 54 222 0.0 1.0 0.00 0.00 0.00 27 1010.8
20210416100321 54 222 0.0 2.0 0.00 0.00 0.00 28 1010.8
20210416095857 54 222 0.0 2.0 0.00 0.00 0.00 28 1010.7
20210416095729 54 222 0.0 2.0 0.00 0.00 0.00 27 1010.7
20210416094936 54 222 0.0 2.0 0.00 0.00 0.00 27 1010.6
20210416094322 54 222 0.0 2.0 0.00 0.00 0.00 27 1010.7
20210416093824 54 222 0.0 0.0 0.00 0.00 0.00 27 1010.7
20210416093419 54 222 0.0 0.0 0.00 0.00 0.00 30 1010.8
20210416092917 54 222 0.0 3.0 0.00 0.00 0.00 29 1010.9
20210416092429 55 222 0.0 3.0 0.00 0.00 0.00 30 1010.9
20210416091827 55 222 0.0 1.0 0.00 0.00 0.00 31 1010.8
20210416091332 55 222 0.0 1.0 0.00 0.00 0.00 30 1010.8
20210416090818 55 222 0.0 1.0 0.00 0.00 0.00 30 1010.8
20210416065830 60 223 0.0 1.0 0.00 0.00 0.00 25 1011.8
20210416065426 60 223 0.0 2.0 0.00 0.00 0.00 25 1011.8
20210416064904 60 223 0.0 2.0 0.00 0.00 0.00 26 1011.8
20210416064333 60 223 0.0 2.0 0.00 0.00 0.00 27 1011.8
20210416063823 60 223 2.0 3.0 0.00 0.00 0.00 27 1011.8
20210416063327 60 223 1.0 3.0 0.00 0.00 0.00 28 1011.7
20210416062927 60 223 1.0 1.0 0.00 0.00 0.00 28 1011.7
20210416062702 60 223 0.0 1.0 0.00 0.00 0.00 28 1011.6